| time (UTC) | temp C | wind direction | speed KPH | gust KPH | rain 1hr cm | rain 24hr cm | rain mn cm | humidity % | barometer mb |
| 20260505021509 | 9 | 207 | 0.0 | 0.0 | 0.00 | 0.00 | 0.00 | 42 | 1011.7 |
| 20260505020008 | 9 | 207 | 0.0 | 0.0 | 0.00 | 0.00 | 0.00 | 47 | 1011.8 |
| 20260505014544 | 10 | 207 | 0.0 | 0.0 | 0.00 | 0.00 | 0.00 | 51 | 1011.7 |
| 20260505013039 | 10 | 207 | 0.0 | 0.0 | 0.00 | 0.00 | 0.00 | 52 | 1011.5 |
| 20260505011518 | 10 | 180 | 0.0 | 6.4 | 0.00 | 0.00 | 0.00 | 55 | 1011.3 |
| 20260505010013 | 11 | 214 | 0.0 | 4.8 | 0.00 | 0.00 | 0.00 | 57 | 1011.2 |
| 20260505004551 | 11 | 192 | 0.0 | 8.0 | 0.00 | 0.00 | 0.00 | 60 | 1010.9 |
| 20260505003047 | 11 | 221 | 1.6 | 8.0 | 0.00 | 0.00 | 0.00 | 63 | 1010.6 |
| 20260505001525 | 11 | 217 | 4.8 | 14.5 | 0.00 | 0.00 | 0.00 | 66 | 1010.4 |
| 20260505000032 | 12 | 232 | 4.8 | 12.9 | 0.00 | 0.00 | 0.00 | 68 | 1010.1 |
| 20260504234612 | 12 | 286 | 4.8 | 14.5 | 0.00 | 0.00 | 0.00 | 69 | 1010.0 |
| 20260504233057 | 13 | 224 | 3.2 | 16.1 | 0.00 | 0.00 | 0.00 | 69 | 1009.8 |
| 20260504231539 | 13 | 269 | 4.8 | 17.7 | 0.00 | 0.00 | 0.00 | 68 | 1009.7 |
| 20260504230034 | 14 | 234 | 3.2 | 14.5 | 0.00 | 0.00 | 0.00 | 65 | 1009.6 |
| 20260504224529 | 14 | 252 | 3.2 | 25.7 | 0.00 | 0.00 | 0.00 | 63 | 1009.4 |
| 20260504223025 | 15 | 246 | 8.0 | 19.3 | 0.00 | 0.00 | 0.00 | 59 | 1009.4 |
| 20260504221525 | 15 | 243 | 11.3 | 32.2 | 0.00 | 0.00 | 0.00 | 55 | 1009.4 |
| 20260504220030 | 16 | 257 | 8.0 | 16.1 | 0.00 | 0.00 | 0.00 | 53 | 1009.4 |
| 20260504214512 | 16 | 199 | 6.4 | 16.1 | 0.00 | 0.00 | 0.00 | 52 | 1009.4 |
| 20260504213009 | 17 | 209 | 11.3 | 20.9 | 0.00 | 0.00 | 0.00 | 50 | 1009.3 |
| 20260504211546 | 17 | 215 | 12.9 | 25.7 | 0.00 | 0.00 | 0.00 | 48 | 1009.1 |
| 20260504210042 | 18 | 254 | 4.8 | 19.3 | 0.00 | 0.00 | 0.00 | 47 | 1009.4 |
| 20260504204535 | 18 | 203 | 9.7 | 29.0 | 0.00 | 0.00 | 0.00 | 46 | 1009.4 |
| 20260504203015 | 18 | 281 | 8.0 | 19.3 | 0.00 | 0.00 | 0.00 | 47 | 1009.1 |
| 20260504201556 | 18 | 231 | 8.0 | 20.9 | 0.00 | 0.00 | 0.00 | 47 | 1009.1 |
| 20260504200053 | 18 | 277 | 11.3 | 27.4 | 0.00 | 0.00 | 0.00 | 46 | 1009.3 |
| 20260504194529 | 18 | 234 | 9.7 | 24.1 | 0.00 | 0.00 | 0.00 | 45 | 1009.1 |
| 20260504193025 | 18 | 211 | 9.7 | 25.7 | 0.00 | 0.00 | 0.00 | 45 | 1009.2 |
| 20260504191503 | 18 | 212 | 11.3 | 27.4 | 0.00 | 0.00 | 0.00 | 44 | 1009.0 |
| 20260504190108 | 18 | 235 | 8.0 | 24.1 | 0.00 | 0.00 | 0.00 | 44 | 1009.2 |
| 20260504184537 | 18 | 207 | 9.7 | 20.9 | 0.00 | 0.00 | 0.00 | 43 | 1009.5 |
| 20260504183038 | 18 | 248 | 11.3 | 27.4 | 0.00 | 0.00 | 0.00 | 41 | 1009.6 |
| 20260504181517 | 18 | 247 | 9.7 | 29.0 | 0.00 | 0.00 | 0.00 | 41 | 1009.8 |
| 20260504180006 | 19 | 251 | 9.7 | 33.8 | 0.00 | 0.00 | 0.00 | 39 | 1009.8 |
| 20260504174552 | 19 | 216 | 9.7 | 27.4 | 0.00 | 0.00 | 0.00 | 36 | 1009.6 |
| 20260504173048 | 20 | 194 | 8.0 | 20.9 | 0.00 | 0.00 | 0.00 | 36 | 1009.8 |
| 20260504171548 | 19 | 209 | 11.3 | 40.2 | 0.00 | 0.00 | 0.00 | 34 | 1009.9 |
| 20260504120107 | 11 | 217 | 0.0 | 6.4 | 0.00 | 0.00 | 0.00 | 67 | 1012.2 |
| 20260504081548 | 0 | 288 | 0.0 | 0.0 | 0.00 | 0.00 | 0.00 | 26 | 1011.6 |
| 20260504060106 | -1 | 288 | 0.0 | 0.0 | 0.00 | 0.00 | 0.00 | 39 | 1011.1 |
| 20260504050015 | 0 | 288 | 0.0 | 0.0 | 0.00 | 0.00 | 0.00 | 45 | 1011.2 |
| 20260504044516 | 0 | 288 | 0.0 | 0.0 | 0.00 | 0.00 | 0.00 | 51 | 1011.3 |
| 20260504043101 | 0 | 288 | 0.0 | 0.0 | 0.00 | 0.00 | 0.00 | 54 | 1011.2 |
| 20260504041552 | 0 | 288 | 0.0 | 0.0 | 0.00 | 0.00 | 0.00 | 57 | 1011.2 |
| 20260504040034 | 0 | 288 | 0.0 | 0.0 | 0.00 | 0.00 | 0.00 | 59 | 1011.1 |
| 20260504034530 | 0 | 288 | 0.0 | 0.0 | 0.00 | 0.00 | 0.00 | 62 | 1011.1 |
| 20260504033011 | 0 | 288 | 0.0 | 0.0 | 0.00 | 0.00 | 0.00 | 63 | 1010.9 |
| 20260504031514 | 0 | 288 | 0.0 | 0.0 | 0.00 | 0.00 | 0.00 | 65 | 1010.8 |
| 20260504030050 | 1 | 288 | 0.0 | 0.0 | 0.00 | 0.00 | 0.00 | 67 | 1010.7 |
| 20260504024549 | 1 | 288 | 0.0 | 0.0 | 0.00 | 0.00 | 0.00 | 69 | 1010.6 |
| 20260504023029 | 1 | 288 | 0.0 | 0.0 | 0.00 | 0.00 | 0.00 | 71 | 1010.6 |